Regional Weather Roundup
Issued by NWS

Home | Current Version | Previous Version | Text Only | Print | Product List | Glossary On
Versions: 1 2 3 4 5 6 7 8 9 10 11 12 13 14 15 16 17 18 19 20 21 22 23 24 25 26 27 28 29 30 31 32 33 34 35 36 37 38 39 40 41 42 43 44 45 46 47 48 49 50
000
ASUS43 KTOP 282108
RWRKS

WEATHER ROUNDUP FOR KANSAS
NATIONAL WEATHER SERVICE GOODLAND KS
400 PM CDT FRI AUG 28 2015

NOTE:  "FAIR" INDICATES FEW OR NO CLOUDS BELOW 12,000 FEET WITH NO
SIGNIFICANT WEATHER AND/OR OBSTRUCTIONS TO VISIBILITY.

KSZ001>006-013>018-027>032-041>047-282200-
NORTHWEST KANSAS

CITY           SKY/WX    TMP DP  RH WIND       PRES   REMARKS
GOODLAND       MOSUNNY   91  46  21 N13G25    30.04F
HAYS           MOSUNNY   91  59  33 N17G24    29.91F
HILL CITY      SUNNY     90  60  36 N15G29    29.95F
RUSSELL        MOSUNNY   88  63  43 NW12G23   29.90F
$$

KSZ061>065-074>080-084>089-282200-
SOUTHWEST KANSAS

CITY           SKY/WX    TMP DP  RH WIND       PRES   REMARKS
DODGE CITY     SUNNY     92  53  26 NW10G21   29.97F
ELKHART          N/A     90  56  31 N7          N/A
GARDEN CITY    PTSUNNY   92  50  23 NW12G20   29.98F
GREAT BEND     SUNNY     91  57  31 NW13      29.89F
LIBERAL        SUNNY     91  55  29 N10       30.02F
PRATT          SUNNY     90  55  31 CALM      29.94S
$$

KSZ066>073-081>083-090>101-282200-
SOUTHEAST KANSAS

CITY           SKY/WX    TMP DP  RH WIND       PRES   REMARKS
CHANUTE        PTSUNNY   75  68  78 S14       29.94F
COFFEYVILLE    CLOUDY    75  68  78 S9        29.94F
HUTCHINSON     MOSUNNY   91  64  40 W6        29.88F
MEDICINE LODGE   N/A     91  65  41 W8        29.90S
NEWTON         PTSUNNY   88  70  55 W13       29.91F
PARSONS        CLOUDY    74  69  85 S3        29.96F
WICHITA INTL   MOSUNNY   88  69  53 S10       29.88F
WICHITA JABRA  MOSUNNY   87  70  56 SW14      29.89F
WICHITA MCCONL SUNNY     87  65  47 S9        29.89F
WINFIELD       MOSUNNY   87  67  51 S17G23    29.91F
$$

KSZ007>012-019>026-033>040-048>060-102>105-282200-
NORTHEAST KANSAS

CITY           SKY/WX    TMP DP  RH WIND       PRES   REMARKS
CONCORDIA      PTSUNNY   81  69  67 W7        29.88F
EMPORIA        MOSUNNY   82  68  62 S18       29.88F
LAWRENCE       CLOUDY    78  66  66 S16       29.90R
MANHATTAN      MOSUNNY   84  72  67 NW9       29.84F
MARYSVILLE     PTSUNNY  N/A N/A N/A NW8       29.86S
OLATHE IND     MOSUNNY   77  66  68 S17       29.91F
OLATHE EXE     MOSUNNY   76  66  71 S22G28    29.91F
SALINA         MOSUNNY   87  69  54 NW14      29.88F
TOPEKA BILLARD PTSUNNY   84  68  58 S12       29.87F
TOPEKA FORBES  PTSUNNY   82  68  62 S15       29.88S
$$


USA.gov is the U.S. government's official web portal to all federal, state and local government web resources and services.